Time,TemperatureF,DewpointF,PressureIn,WindDirection,WindDirectionDegrees,WindSpeedMPH,WindSpeedGustMPH,Humidity,HourlyPrecipIn,Conditions,Clouds,dailyrainin,SoftwareType,DateUTC
2013-08-22 00:00:00,63.3,61.5,30.01,South,180,0.0,-999.0,94,-99.99,,,0.00,Acu-Link.com,2013-08-22 04:00:00,
2013-08-22 00:16:00,63.3,61.5,30.02,SSW,202,0.0,-999.0,94,-99.99,,,0.00,Acu-Link.com,2013-08-22 04:16:00,
2013-08-22 00:31:00,62.8,61.0,30.02,NE,45,0.0,-999.0,94,-99.99,,,0.00,Acu-Link.com,2013-08-22 04:31:00,
2013-08-22 00:47:00,62.6,61.1,30.02,East,90,0.0,-999.0,95,-99.99,,,0.00,Acu-Link.com,2013-08-22 04:47:00,
2013-08-22 01:02:00,62.2,61.0,30.02,NNW,337,0.0,-999.0,96,-99.99,,,0.00,Acu-Link.com,2013-08-22 05:02:00,
2013-08-22 01:17:00,61.9,61.0,30.02,ESE,112,0.0,-999.0,97,-99.99,,,0.00,Acu-Link.com,2013-08-22 05:17:00,
2013-08-22 01:33:00,61.5,60.6,30.02,NNE,22,0.0,-999.0,97,-99.99,,,0.00,Acu-Link.com,2013-08-22 05:33:00,
2013-08-22 01:48:00,61.3,60.4,30.02,East,90,0.0,-999.0,97,-99.99,,,0.00,Acu-Link.com,2013-08-22 05:48:00,
2013-08-22 02:03:00,60.8,59.9,30.02,ENE,67,0.0,-999.0,97,-99.99,,,0.00,Acu-Link.com,2013-08-22 06:03:00,
2013-08-22 02:19:00,60.6,59.7,30.02,NE,45,0.0,-999.0,97,-99.99,,,0.00,Acu-Link.com,2013-08-22 06:19:00,
2013-08-22 02:34:00,60.1,59.5,30.02,East,90,0.0,-999.0,98,-99.99,,,0.00,Acu-Link.com,2013-08-22 06:34:00,
2013-08-22 02:49:00,59.9,59.3,30.01,NW,315,0.0,-999.0,98,-99.99,,,0.00,Acu-Link.com,2013-08-22 06:49:00,
2013-08-22 03:05:00,59.5,58.9,30.01,South,180,0.0,-999.0,98,-99.99,,,0.00,Acu-Link.com,2013-08-22 07:05:00,
2013-08-22 03:20:00,59.7,59.1,30.01,SSE,157,0.0,-999.0,98,-99.99,,,0.00,Acu-Link.com,2013-08-22 07:20:00,
2013-08-22 03:35:00,59.5,58.9,30.01,NNW,337,0.0,-999.0,98,-99.99,,,0.00,Acu-Link.com,2013-08-22 07:35:00,
2013-08-22 03:50:00,59.4,58.8,30.01,ESE,112,0.0,-999.0,98,-99.99,,,0.00,Acu-Link.com,2013-08-22 07:50:00,
2013-08-22 04:06:00,59.4,58.8,30.00,NE,45,0.0,-999.0,98,-99.99,,,0.00,Acu-Link.com,2013-08-22 08:06:00,
2013-08-22 04:21:00,59.4,58.8,30.00,ESE,112,0.0,-999.0,98,-99.99,,,0.00,Acu-Link.com,2013-08-22 08:21:00,
2013-08-22 04:36:00,59.2,58.6,29.99,NNW,337,0.0,-999.0,98,-99.99,,,0.00,Acu-Link.com,2013-08-22 08:36:00,
2013-08-22 04:51:00,59.0,58.4,29.99,NE,45,0.0,-999.0,98,-99.99,,,0.00,Acu-Link.com,2013-08-22 08:51:00,
2013-08-22 05:06:00,59.0,58.4,29.98,South,180,0.0,-999.0,98,-99.99,,,0.00,Acu-Link.com,2013-08-22 09:06:00,
2013-08-22 05:21:00,59.0,58.4,29.98,SW,225,0.0,-999.0,98,-99.99,,,0.00,Acu-Link.com,2013-08-22 09:21:00,
2013-08-22 05:37:00,58.8,58.2,29.98,NNW,337,0.0,-999.0,98,-99.99,,,0.00,Acu-Link.com,2013-08-22 09:37:00,
2013-08-22 05:52:00,58.8,58.2,29.98,NNW,337,0.0,-999.0,98,-99.99,,,0.00,Acu-Link.com,2013-08-22 09:52:00,
2013-08-22 06:07:00,58.5,57.9,29.97,NW,315,0.0,-999.0,98,-99.99,,,0.00,Acu-Link.com,2013-08-22 10:07:00,
2013-08-22 06:22:00,58.5,57.9,29.97,West,270,0.0,-999.0,98,-99.99,,,0.00,Acu-Link.com,2013-08-22 10:22:00,
2013-08-22 06:38:00,58.5,57.9,29.97,East,90,0.0,-999.0,98,-99.99,,,0.00,Acu-Link.com,2013-08-22 10:38:00,
2013-08-22 08:40:00,66.6,66.0,29.98,NNE,22,2.2,-999.0,98,-99.99,,,0.00,Acu-Link.com,2013-08-22 12:40:00,
2013-08-22 08:56:00,68.0,66.8,29.97,NNW,337,1.7,-999.0,96,-99.99,,,0.00,Acu-Link.com,2013-08-22 12:56:00,
2013-08-22 09:11:00,69.8,67.4,29.97,SSE,157,0.0,-999.0,92,-99.99,,,0.00,Acu-Link.com,2013-08-22 13:11:00,
2013-08-22 09:26:00,71.6,67.2,29.97,SE,135,1.7,-999.0,86,-99.99,,,0.00,Acu-Link.com,2013-08-22 13:26:00,
2013-08-22 09:42:00,73.0,67.5,29.97,SW,225,1.7,-999.0,83,-99.99,,,0.00,Acu-Link.com,2013-08-22 13:42:00,
2013-08-22 09:57:00,74.3,67.0,29.97,West,270,0.0,-999.0,78,-99.99,,,0.00,Acu-Link.com,2013-08-22 13:57:00,
2013-08-22 10:12:00,75.7,66.8,29.97,NW,315,0.0,-999.0,74,-99.99,,,0.00,Acu-Link.com,2013-08-22 14:12:00,
2013-08-22 10:28:00,76.5,67.2,29.96,NNW,337,2.7,-999.0,73,-99.99,,,0.00,Acu-Link.com,2013-08-22 14:28:00,
2013-08-22 10:43:00,77.4,66.8,29.96,North,0,2.7,-999.0,70,-99.99,,,0.00,Acu-Link.com,2013-08-22 14:43:00,
2013-08-22 10:58:00,78.4,66.9,29.95,North,0,2.2,-999.0,68,-99.99,,,0.00,Acu-Link.com,2013-08-22 14:58:00,
2013-08-22 11:14:00,78.6,67.1,29.94,East,90,2.7,-999.0,68,-99.99,,,0.00,Acu-Link.com,2013-08-22 15:14:00,
2013-08-22 11:29:00,79.0,66.7,29.94,NNE,22,2.7,-999.0,66,-99.99,,,0.00,Acu-Link.com,2013-08-22 15:29:00,
2013-08-22 11:44:00,80.2,66.9,29.95,ESE,112,1.7,-999.0,64,-99.99,,,0.00,Acu-Link.com,2013-08-22 15:44:00,
2013-08-22 11:59:00,81.0,65.3,29.94,North,0,1.7,-999.0,59,-99.99,,,0.00,Acu-Link.com,2013-08-22 15:59:00,
2013-08-22 12:15:00,81.0,65.3,29.93,North,0,1.1,-999.0,59,-99.99,,,0.00,Acu-Link.com,2013-08-22 16:15:00,
2013-08-22 12:30:00,82.2,67.9,29.93,NNW,337,3.7,-999.0,62,-99.99,,,0.00,Acu-Link.com,2013-08-22 16:30:00,
2013-08-22 12:45:00,82.9,66.1,29.92,East,90,1.7,-999.0,57,-99.99,,,0.00,Acu-Link.com,2013-08-22 16:45:00,
2013-08-22 13:01:00,84.4,66.4,29.91,NNE,22,2.7,-999.0,55,-99.99,,,0.00,Acu-Link.com,2013-08-22 17:01:00,
2013-08-22 13:16:00,84.6,66.1,29.90,NE,45,2.7,-999.0,54,-99.99,,,0.00,Acu-Link.com,2013-08-22 17:16:00,
2013-08-22 13:31:00,82.8,66.0,29.90,SSW,202,1.7,-999.0,57,-99.99,,,0.00,Acu-Link.com,2013-08-22 17:31:00,
2013-08-22 13:47:00,81.3,65.6,29.89,WNW,292,0.0,-999.0,59,-99.99,,,0.00,Acu-Link.com,2013-08-22 17:47:00,
2013-08-22 14:02:00,82.4,67.1,29.87,East,90,0.0,-999.0,60,-99.99,,,0.00,Acu-Link.com,2013-08-22 18:02:00,
2013-08-22 14:17:00,82.6,65.8,29.86,WNW,292,0.0,-999.0,57,-99.99,,,0.00,Acu-Link.com,2013-08-22 18:17:00,
2013-08-22 14:32:00,83.7,64.7,29.85,SW,225,0.0,-999.0,53,-99.99,,,0.00,Acu-Link.com,2013-08-22 18:32:00,
2013-08-22 14:47:00,86.9,64.8,29.85,WSW,247,1.7,-999.0,48,-99.99,,,0.00,Acu-Link.com,2013-08-22 18:47:00,
2013-08-22 15:03:00,84.2,65.2,29.85,SW,225,1.1,-999.0,53,-99.99,,,0.00,Acu-Link.com,2013-08-22 19:03:00,
2013-08-22 15:18:00,84.7,64.0,29.85,ESE,112,1.1,-999.0,50,-99.99,,,0.00,Acu-Link.com,2013-08-22 19:18:00,
2013-08-22 15:34:00,82.9,63.4,29.84,West,270,1.7,-999.0,52,-99.99,,,0.00,Acu-Link.com,2013-08-22 19:34:00,
2013-08-22 15:49:00,84.6,66.1,29.84,WNW,292,2.7,-999.0,54,-99.99,,,0.00,Acu-Link.com,2013-08-22 19:49:00,
2013-08-22 16:04:00,84.7,64.5,29.82,WNW,292,1.7,-999.0,51,-99.99,,,0.00,Acu-Link.com,2013-08-22 20:04:00,
2013-08-22 16:19:00,83.8,64.3,29.82,ENE,67,2.7,-999.0,52,-99.99,,,0.00,Acu-Link.com,2013-08-22 20:19:00,
2013-08-22 16:35:00,82.8,64.4,29.81,WNW,292,0.0,-999.0,54,-99.99,,,0.00,Acu-Link.com,2013-08-22 20:35:00,
2013-08-22 16:50:00,81.9,64.6,29.80,NNW,337,2.2,-999.0,56,-99.99,,,0.00,Acu-Link.com,2013-08-22 20:50:00,
2013-08-22 17:05:00,81.1,63.9,29.80,NNE,22,1.7,-999.0,56,-99.99,,,0.00,Acu-Link.com,2013-08-22 21:05:00,
2013-08-22 17:20:00,81.0,63.8,29.80,WNW,292,2.2,-999.0,56,-99.99,,,0.00,Acu-Link.com,2013-08-22 21:20:00,
2013-08-22 17:36:00,80.2,63.6,29.80,NNW,337,1.7,-999.0,57,-99.99,,,0.00,Acu-Link.com,2013-08-22 21:36:00,
2013-08-22 17:51:00,79.2,64.1,29.80,WSW,247,0.0,-999.0,60,-99.99,,,0.00,Acu-Link.com,2013-08-22 21:51:00,
2013-08-22 18:06:00,78.6,64.0,29.80,West,270,1.7,-999.0,61,-99.99,,,0.00,Acu-Link.com,2013-08-22 22:06:00,
2013-08-22 18:22:00,77.7,64.1,29.80,NW,315,0.0,-999.0,63,-99.99,,,0.00,Acu-Link.com,2013-08-22 22:22:00,
2013-08-22 18:37:00,76.5,65.1,29.80,SSW,202,0.0,-999.0,68,-99.99,,,0.00,Acu-Link.com,2013-08-22 22:37:00,
2013-08-22 18:52:00,75.0,64.5,29.80,SSW,202,0.0,-999.0,70,-99.99,,,0.00,Acu-Link.com,2013-08-22 22:52:00,
2013-08-22 19:07:00,74.1,64.9,29.80,SW,225,0.0,-999.0,73,-99.99,,,0.00,Acu-Link.com,2013-08-22 23:07:00,
2013-08-22 19:22:00,72.9,64.5,29.80,SSW,202,0.0,-999.0,75,-99.99,,,0.00,Acu-Link.com,2013-08-22 23:22:00,
2013-08-22 19:37:00,72.5,64.9,29.80,South,180,0.0,-999.0,77,-99.99,,,0.00,Acu-Link.com,2013-08-22 23:37:00,
2013-08-22 19:53:00,72.3,65.4,29.81,SSE,157,1.1,-999.0,79,-99.99,,,0.00,Acu-Link.com,2013-08-22 23:53:00,
2013-08-22 20:08:00,70.5,67.1,29.83,East,90,0.0,-999.0,89,-99.99,,,0.01,Acu-Link.com,2013-08-23 00:08:00,
2013-08-22 20:23:00,69.3,67.2,29.83,ESE,112,1.1,-999.0,93,-99.99,,,0.32,Acu-Link.com,2013-08-23 00:23:00,
2013-08-22 20:38:00,68.5,67.3,29.83,ESE,112,0.0,-999.0,96,-99.99,,,0.33,Acu-Link.com,2013-08-23 00:38:00,
2013-08-22 20:53:00,68.2,67.3,29.82,WSW,247,0.0,-999.0,97,-99.99,,,0.34,Acu-Link.com,2013-08-23 00:53:00,
2013-08-22 21:09:00,67.6,67.0,29.81,South,180,1.1,-999.0,98,-99.99,,,0.34,Acu-Link.com,2013-08-23 01:09:00,
2013-08-22 21:24:00,67.3,66.7,29.82,SW,225,1.1,-999.0,98,-99.99,,,0.35,Acu-Link.com,2013-08-23 01:24:00,
2013-08-22 21:39:00,67.1,66.5,29.82,SSW,202,0.0,-999.0,98,-99.99,,,0.35,Acu-Link.com,2013-08-23 01:39:00,
2013-08-22 21:55:00,66.9,66.3,29.82,ESE,112,1.1,-999.0,98,-99.99,,,0.35,Acu-Link.com,2013-08-23 01:55:00,
2013-08-22 22:10:00,66.7,66.1,29.82,South,180,1.7,-999.0,98,-99.99,,,0.35,Acu-Link.com,2013-08-23 02:10:00,
2013-08-22 22:25:00,66.7,66.1,29.82,WSW,247,0.0,-999.0,98,-99.99,,,0.35,Acu-Link.com,2013-08-23 02:25:00,
2013-08-22 22:40:00,66.7,66.1,29.81,SSW,202,0.0,-999.0,98,-99.99,,,0.35,Acu-Link.com,2013-08-23 02:40:00,
2013-08-22 22:56:00,66.6,66.0,29.82,South,180,0.0,-999.0,98,-99.99,,,0.35,Acu-Link.com,2013-08-23 02:56:00,
2013-08-22 23:11:00,66.6,66.0,29.82,SSE,157,0.0,-999.0,98,-99.99,,,0.35,Acu-Link.com,2013-08-23 03:11:00,
2013-08-22 23:26:00,66.4,65.8,29.82,SSE,157,0.0,-999.0,98,-99.99,,,0.35,Acu-Link.com,2013-08-23 03:26:00,
2013-08-22 23:41:00,66.2,65.6,29.83,South,180,0.0,-999.0,98,-99.99,,,0.35,Acu-Link.com,2013-08-23 03:41:00,
2013-08-22 23:56:00,66.0,65.4,29.83,South,180,0.0,-999.0,98,-99.99,,,0.35,Acu-Link.com,2013-08-23 03:56:00,